Bradford, PA

7:43 AM EDT on September 20, 2017 (GMT -0400)
Bradford Regional

Weather History for KBFD - May, 2013

Change the Weather History Date:

Friday, May 24, 2013

  Actual Average Record
Temperature  
Mean Temperature 44 °F 55 °F  
Max Temperature 46 °F 68 °F 85 °F (1972)
Min Temperature 35 °F 43 °F 22 °F (1963)
Degree Days  
Heating Degree Days 22 6  
Month to date heating degree days 206  
Since 1 July heating degree days 7457  
Cooling Degree Days 0 0  
Month to date cooling degree days 0  
Year to date cooling degree days 2  
Moisture  
Dew Point 35 °F    
Average Humidity 81    
Maximum Humidity 90    
Minimum Humidity 70    
Precipitation  
Precipitation 0.03 in 0.14 in 1.75 in (1975)
Month to date precipitation 3.18  
Year to date precipitation 15.74  
Sea Level Pressure  
Sea Level Pressure 30.06 in    
Wind  
Wind Speed 14 mph (NW)    
Max Wind Speed 20 mph    
Max Gust Speed 28 mph    
Visibility 8 miles    
Events Rain    
T = Trace of Precipitation, MM = Missing Value Source: NWS Daily Summary

Daily Weather History Graph

Daily Weather History Graph

Search for Another Location

Airport or City:

Trip Planner

Search our weather history database for the weather conditions in past years. The results will help you decide how hot, cold, wet, or windy it might be!

Date:

Astronomy

May. 24, 2013 Rise Set
Actual Time 5:46 AM EDT 8:36 PM EDT
Civil Twilight 5:14 AM EDT 9:09 PM EDT
Nautical Twilight 4:32 AM EDT 9:50 PM EDT
Astronomical Twilight 3:45 AM EDT 10:38 PM EDT
Moon 8:16 PM EDT (5/24) 5:18 AM EDT (5/24)
Length of Visible Light 15h 55m
Length of Day
14h 49m
Full, 100% of the Moon is Illuminated
May 24
Full
May 25
Full
May 31
Last Quarter
Jun 8
New
Jun 16
First Quarter

Hourly Weather History & Observations

Time (EDT) Temp. Windchill Dew Point Humidity Pressure Visibility Wind Dir Wind Speed Gust Speed Precip Events Conditions
12:11 AM 50.0 °F - 46.0 °F 86% 29.85 in 2.5 mi NW 15.0 mph - N/A   Overcast
12:18 AM 48.9 °F - 46.0 °F 90% 29.85 in 3.0 mi NNW 12.7 mph - N/A   Overcast
12:33 AM 48.0 °F - 45.0 °F 89% 29.86 in 4.0 mi NW 15.0 mph - 0.00 in Rain Light Rain
12:53 AM 46.9 °F - 43.0 °F 86% 29.86 in 8.0 mi NW 12.7 mph - 0.00 in   Overcast
1:53 AM 45.0 °F 38.2 °F 39.9 °F 82% 29.86 in 10.0 mi NNW 15.0 mph - 0.00 in Rain Light Rain
2:53 AM 43.0 °F 36.8 °F 39.0 °F 86% 29.88 in 4.0 mi NNW 11.5 mph - 0.01 in Rain Light Rain
3:43 AM 42.1 °F 35.2 °F 37.0 °F 82% 29.88 in 10.0 mi NNW 12.7 mph 21.9 mph 0.00 in   Overcast
3:53 AM 42.1 °F 34.9 °F 37.9 °F 85% 29.88 in 9.0 mi NNW 13.8 mph - 0.00 in   Overcast
4:53 AM 39.9 °F 32.1 °F 36.0 °F 86% 29.92 in 5.0 mi NW 13.8 mph - 0.00 in Rain Light Rain
5:53 AM 37.9 °F 30.0 °F 35.1 °F 89% 29.95 in 7.0 mi NNW 12.7 mph 23.0 mph 0.00 in Rain Light Rain
6:16 AM 37.9 °F 30.0 °F 33.1 °F 83% 29.95 in 10.0 mi NNW 12.7 mph 21.9 mph 0.00 in   Overcast
6:53 AM 37.0 °F 28.9 °F 33.1 °F 86% 29.99 in 10.0 mi NNW 12.7 mph - 0.00 in   Overcast
7:53 AM 37.9 °F 29.2 °F 34.0 °F 86% 30.01 in 4.0 mi North 15.0 mph 20.7 mph 0.00 in Rain Light Rain
8:53 AM 39.0 °F 32.8 °F 35.1 °F 86% 30.04 in 4.0 mi NNW 9.2 mph - 0.01 in Rain Light Rain
9:31 AM 39.9 °F 31.8 °F 35.1 °F 83% 30.04 in 7.0 mi NNW 15.0 mph 24.2 mph 0.00 in Rain Light Rain
9:53 AM 39.0 °F 30.3 °F 34.0 °F 82% 30.06 in 5.0 mi NNW 16.1 mph 26.5 mph 0.00 in Rain Light Rain
10:25 AM 39.9 °F 32.9 °F 35.1 °F 83% 30.06 in 4.0 mi NW 11.5 mph - 0.00 in Rain Light Rain
10:53 AM 39.0 °F 30.3 °F 34.0 °F 82% 30.08 in 4.0 mi NW 16.1 mph - 0.01 in Rain Light Rain
11:18 AM 41.0 °F 33.9 °F 36.0 °F 82% 30.08 in 10.0 mi NNW 12.7 mph 24.2 mph 0.00 in   Overcast
11:30 AM 39.9 °F 31.1 °F 34.0 °F 79% 30.08 in 8.0 mi NNW 17.3 mph 24.2 mph 0.00 in Rain Light Rain
11:53 AM 39.9 °F 32.1 °F 34.0 °F 79% 30.11 in 10.0 mi NW 13.8 mph - 0.00 in Rain Light Rain
12:11 PM 41.0 °F 32.2 °F 35.1 °F 79% 30.09 in 6.0 mi NW 18.4 mph 25.3 mph 0.00 in Rain Light Rain
12:19 PM 39.9 °F 30.8 °F 35.1 °F 83% 30.10 in 10.0 mi NNW 18.4 mph 26.5 mph 0.00 in Rain Light Rain
12:53 PM 41.0 °F 32.5 °F 34.0 °F 76% 30.12 in 10.0 mi NNW 17.3 mph 24.2 mph 0.00 in Rain Light Rain
1:01 PM 41.0 °F 33.1 °F 34.0 °F 76% 30.10 in 10.0 mi NNW 15.0 mph 26.5 mph 0.00 in Rain Light Rain
1:20 PM 39.9 °F 31.4 °F 35.1 °F 83% 30.10 in 8.0 mi NW 16.1 mph - 0.00 in Rain Light Rain
1:53 PM 39.9 °F 30.5 °F 34.0 °F 79% 30.14 in 10.0 mi NW 19.6 mph 27.6 mph 0.00 in   Overcast
2:37 PM 41.0 °F 31.9 °F 34.0 °F 76% 30.12 in 10.0 mi NW 19.6 mph 27.6 mph N/A   Overcast
2:53 PM 39.0 °F 30.3 °F 33.1 °F 79% 30.16 in 10.0 mi NNW 16.1 mph 25.3 mph N/A   Overcast
3:00 PM 39.0 °F 29.6 °F 33.1 °F 79% 30.13 in 10.0 mi NW 18.4 mph 25.3 mph N/A   Overcast
3:27 PM 41.0 °F 32.8 °F 34.0 °F 76% 30.14 in 10.0 mi NW 16.1 mph 24.2 mph N/A   Overcast
3:39 PM 39.0 °F 29.9 °F 33.1 °F 79% 30.14 in 10.0 mi NW 17.3 mph - N/A   Overcast
3:53 PM 39.0 °F 31.0 °F 33.1 °F 79% 30.18 in 10.0 mi NW 13.8 mph - N/A   Overcast
4:30 PM 39.0 °F 29.9 °F 32.0 °F 76% 30.15 in 10.0 mi NW 17.3 mph - N/A   Overcast
4:53 PM 39.9 °F 32.1 °F 33.1 °F 77% 30.19 in 10.0 mi NW 13.8 mph 23.0 mph N/A   Overcast
5:20 PM 41.0 °F 33.1 °F 33.1 °F 73% 30.15 in 10.0 mi NW 15.0 mph - N/A   Overcast
5:53 PM 41.0 °F 33.1 °F 32.0 °F 70% 30.19 in 10.0 mi NW 15.0 mph 21.9 mph N/A   Overcast
6:53 PM 41.0 °F 32.8 °F 32.0 °F 70% 30.20 in 10.0 mi NW 16.1 mph 23.0 mph N/A   Overcast
7:53 PM 41.0 °F 33.9 °F 32.0 °F 70% 30.20 in 10.0 mi NNW 12.7 mph - N/A   Overcast
8:53 PM 39.9 °F 35.1 °F 33.1 °F 77% 30.21 in 10.0 mi NW 6.9 mph - N/A   Overcast
9:53 PM 39.0 °F 34.0 °F 32.0 °F 76% 30.21 in 10.0 mi NW 6.9 mph - N/A   Overcast
10:53 PM 37.0 °F 34.5 °F 32.0 °F 82% 30.23 in 10.0 mi WNW 3.5 mph - N/A   Scattered Clouds
11:53 PM 35.1 °F - 30.9 °F 85% 30.23 in 10.0 mi Calm Calm - N/A   Mostly Cloudy